When you browse on this site, cookies collect data to enhance your experience and personalize the content and advertising you see.
Visit our Privacy Policy to learn more. By continuing to use the site, you agree to this use of cookies and data.
  • In United Kingdom
  • List of Countries
  • For 7 days
  • Water Temperature
  • Weather Map
  • Weather Widgets
  • user-avatar
    Login

    Hourly Weather La Esperanza

    Today, 19 January, Sunday

    Time Temperature Precipitation Wind Pressure Humidity
    00:00 +15°C° 0 mm 2 mps 616 mmHg 93%
    01:00 +15°C° 0 mm 2 mps 616 mmHg 93%
    02:00 +15°C° 0 mm 2 mps 616 mmHg 92%
    03:00 +15°C° 0 mm 2 mps 616 mmHg 92%
    04:00 +15°C° 0 mm 2 mps 616 mmHg 92%
    05:00 +14°C° 0 mm 2 mps 616 mmHg 92%
    06:00 +14°C° 0 mm 2 mps 617 mmHg 92%
    07:00 +15°C° 0 mm 2 mps 617 mmHg 86%
    08:00 +17°C° 0 mm 2 mps 618 mmHg 80%
    09:00 +18°C° 0 mm 2 mps 619 mmHg 74%
    10:00 +19°C° 0 mm 2 mps 619 mmHg 65%
    11:00 +21°C° 0 mm 3 mps 620 mmHg 56%
    12:00 +24°C° 0 mm 3 mps 620 mmHg 47%
    13:00 +24°C° 0 mm 3 mps 619 mmHg 46%
    14:00 +24°C° 0 mm 3 mps 619 mmHg 45%
    15:00 +24°C° 0 mm 3 mps 618 mmHg 44%
    16:00 +20°C° 0 mm 3 mps 618 mmHg 55%
    17:00 +18°C° 0 mm 2 mps 617 mmHg 66%
    18:00 +16°C° 0 mm 2 mps 616 mmHg 77%
    19:00 +15°C° 0 mm 2 mps 617 mmHg 82%
    20:00 +15°C° 0 mm 2 mps 617 mmHg 87%
    21:00 +13°C° 0 mm 3 mps 617 mmHg 92%
    22:00 +13°C° 0 mm 3 mps 617 mmHg 91%
    23:00 +13°C° 0 mm 3 mps 617 mmHg 91%

    Tomorrow, 20 January, Monday

    Time Temperature Precipitation Wind Pressure Humidity
    00:00 +12°C° 0 mm 3 mps 617 mmHg 90%
    01:00 +12°C° 0 mm 3 mps 617 mmHg 91%
    02:00 +12°C° 0 mm 3 mps 617 mmHg 91%
    03:00 +12°C° 0 mm 3 mps 616 mmHg 91%
    04:00 +12°C° 0 mm 3 mps 616 mmHg 91%
    05:00 +12°C° 0 mm 3 mps 617 mmHg 91%
    06:00 +12°C° 0 mm 3 mps 617 mmHg 92%
    07:00 +13°C° 0 mm 3 mps 618 mmHg 87%
    08:00 +14°C° 0 mm 3 mps 619 mmHg 83%
    09:00 +16°C° 0 mm 3 mps 620 mmHg 78%
    10:00 +18°C° 0 mm 3 mps 620 mmHg 72%
    11:00 +19°C° 0 mm 4 mps 620 mmHg 65%
    12:00 +21°C° 0 mm 4 mps 620 mmHg 59%
    13:00 +21°C° 0 mm 4 mps 620 mmHg 59%
    14:00 +21°C° 0 mm 4 mps 619 mmHg 59%
    15:00 +21°C° 0 mm 4 mps 619 mmHg 58%
    16:00 +19°C° 0.1 mm 3 mps 618 mmHg 68%
    17:00 +17°C° 0.1 mm 3 mps 618 mmHg 77%
    18:00 +14°C° 0.1 mm 3 mps 617 mmHg 87%
    19:00 +14°C° 0 mm 3 mps 617 mmHg 88%
    20:00 +13°C° 0 mm 3 mps 618 mmHg 89%
    21:00 +13°C° 0 mm 3 mps 618 mmHg 90%
    22:00 +13°C° 0 mm 3 mps 618 mmHg 90%
    23:00 +12°C° 0 mm 3 mps 618 mmHg 90%

    Day after tomorrow, 21 January, Tuesday

    Time Temperature Precipitation Wind Pressure Humidity
    00:00 +12°C° 0 mm 3 mps 618 mmHg 91%
    01:00 +12°C° 0 mm 3 mps 617 mmHg 91%
    02:00 +12°C° 0 mm 3 mps 617 mmHg 91%
    03:00 +12°C° 0 mm 3 mps 617 mmHg 91%
    04:00 +12°C° 0 mm 3 mps 617 mmHg 91%
    05:00 +11°C° 0 mm 3 mps 617 mmHg 91%
    06:00 +11°C° 0 mm 3 mps 617 mmHg 91%
    07:00 +13°C° 0 mm 3 mps 618 mmHg 86%
    08:00 +14°C° 0 mm 3 mps 619 mmHg 80%
    09:00 +16°C° 0 mm 3 mps 620 mmHg 75%
    10:00 +17°C° 0 mm 4 mps 620 mmHg 70%
    11:00 +19°C° 0 mm 4 mps 620 mmHg 64%
    12:00 +20°C° 0 mm 4 mps 620 mmHg 59%
    13:00 +20°C° 0 mm 4 mps 619 mmHg 61%
    14:00 +19°C° 0 mm 4 mps 619 mmHg 63%
    15:00 +18°C° 0 mm 4 mps 618 mmHg 66%
    16:00 +17°C° 0 mm 3 mps 617 mmHg 72%
    17:00 +14°C° 0 mm 3 mps 617 mmHg 79%
    18:00 +13°C° 0 mm 3 mps 617 mmHg 85%
    19:00 +13°C° 0 mm 3 mps 617 mmHg 87%
    20:00 +12°C° 0 mm 3 mps 617 mmHg 88%
    21:00 +12°C° 0 mm 3 mps 618 mmHg 90%
    22:00 +12°C° 0 mm 3 mps 618 mmHg 90%
    23:00 +12°C° 0 mm 3 mps 617 mmHg 90%

    22 January, Wednesday

    Time Temperature Precipitation Wind Pressure Humidity
    00:00 +12°C° 0 mm 3 mps 617 mmHg 91%
    01:00 +12°C° 0 mm 3 mps 617 mmHg 90%
    02:00 +12°C° 0 mm 2 mps 617 mmHg 90%
    03:00 +12°C° 0 mm 2 mps 616 mmHg 90%
    04:00 +12°C° 0 mm 2 mps 616 mmHg 90%
    05:00 +12°C° 0 mm 2 mps 616 mmHg 90%
    06:00 +12°C° 0 mm 2 mps 616 mmHg 90%
    07:00 +13°C° 0 mm 2 mps 617 mmHg 85%
    08:00 +14°C° 0 mm 2 mps 618 mmHg 80%
    09:00 +15°C° 0 mm 2 mps 619 mmHg 74%
    10:00 +18°C° 0 mm 2 mps 619 mmHg 66%
    11:00 +20°C° 0 mm 2 mps 619 mmHg 58%
    12:00 +23°C° 0 mm 1 mps 620 mmHg 49%
    13:00 +23°C° 0 mm 1 mps 619 mmHg 49%
    14:00 +23°C° 0 mm 1 mps 618 mmHg 50%
    15:00 +23°C° 0 mm 1 mps 618 mmHg 50%
    16:00 +20°C° 0.1 mm 1 mps 617 mmHg 61%
    17:00 +17°C° 0.1 mm 2 mps 616 mmHg 72%
    18:00 +15°C° 0.1 mm 2 mps 615 mmHg 83%
    19:00 +14°C° 0 mm 2 mps 616 mmHg 86%
    20:00 +13°C° 0 mm 1 mps 616 mmHg 89%
    21:00 +12°C° 0 mm 1 mps 616 mmHg 93%
    22:00 +12°C° 0 mm 1 mps 616 mmHg 92%
    23:00 +12°C° 0 mm 1 mps 616 mmHg 92%

    23 January, Thursday

    Time Temperature Precipitation Wind Pressure Humidity
    00:00 +12°C° 0 mm 1 mps 616 mmHg 92%
    01:00 +12°C° 0 mm 1 mps 616 mmHg 92%
    02:00 +12°C° 0 mm 1 mps 615 mmHg 92%
    03:00 +11°C° 0 mm 0 mps 615 mmHg 93%
    04:00 +10°C° 0 mm 0 mps 615 mmHg 93%
    05:00 +11°C° 0 mm 1 mps 615 mmHg 93%
    06:00 +11°C° 0 mm 1 mps 615 mmHg 93%
    07:00 +14°C° 0 mm 1 mps 617 mmHg 82%
    08:00 +18°C° 0 mm 1 mps 618 mmHg 72%
    09:00 +21°C° 0 mm 1 mps 620 mmHg 61%
    10:00 +22°C° 0 mm 1 mps 620 mmHg 54%
    11:00 +24°C° 0 mm 1 mps 620 mmHg 47%
    12:00 +25°C° 0 mm 2 mps 620 mmHg 39%
    13:00 +24°C° 0 mm 2 mps 619 mmHg 43%
    14:00 +24°C° 0 mm 2 mps 618 mmHg 47%
    15:00 +23°C° 0 mm 1 mps 617 mmHg 50%
    16:00 +21°C° 0.2 mm 1 mps 616 mmHg 57%
    17:00 +19°C° 0.2 mm 1 mps 616 mmHg 64%
    18:00 +15°C° 0.2 mm 0 mps 615 mmHg 71%
    19:00 +14°C° 0 mm 0 mps 615 mmHg 76%
    20:00 +13°C° 0 mm 0 mps 616 mmHg 80%
    21:00 +14°C° 0 mm 1 mps 616 mmHg 84%
    22:00 +13°C° 0 mm 1 mps 616 mmHg 86%
    23:00 +13°C° 0 mm 1 mps 615 mmHg 88%

    24 January, Friday

    Time Temperature Precipitation Wind Pressure Humidity
    00:00 +13°C° 0 mm 1 mps 615 mmHg 90%
    01:00 +13°C° 0 mm 1 mps 615 mmHg 91%
    02:00 +13°C° 0 mm 1 mps 615 mmHg 92%
    03:00 +12°C° 0 mm 0 mps 614 mmHg 93%
    04:00 +12°C° 0 mm 1 mps 615 mmHg 93%
    05:00 +12°C° 0 mm 1 mps 615 mmHg 94%
    06:00 +12°C° 0 mm 1 mps 615 mmHg 94%
    07:00 +14°C° 0 mm 1 mps 616 mmHg 85%
    08:00 +18°C° 0 mm 1 mps 617 mmHg 76%
    09:00 +20°C° 0 mm 1 mps 619 mmHg 66%
    10:00 +21°C° 0 mm 2 mps 619 mmHg 58%
    11:00 +23°C° 0 mm 2 mps 619 mmHg 50%
    12:00 +25°C° 0 mm 2 mps 619 mmHg 42%
    13:00 +25°C° 0 mm 2 mps 619 mmHg 43%
    14:00 +24°C° 0 mm 2 mps 618 mmHg 44%
    15:00 +24°C° 0 mm 2 mps 617 mmHg 45%
    16:00 +21°C° 0 mm 2 mps 616 mmHg 53%
    17:00 +20°C° 0 mm 1 mps 616 mmHg 61%
    18:00 +18°C° 0 mm 1 mps 615 mmHg 70%
    19:00 +16°C° 0 mm 1 mps 615 mmHg 75%
    20:00 +15°C° 0 mm 1 mps 616 mmHg 80%
    21:00 +14°C° 0 mm 1 mps 616 mmHg 85%
    22:00 +14°C° 0 mm 1 mps 616 mmHg 86%
    23:00 +14°C° 0 mm 1 mps 616 mmHg 88%
    Show more